, MT

(GMT )
West Yellowstone

Weather History for KWYS - June, 2014

Change the Weather History Date:

Monday, June 16, 2014

  Actual Average Record
Temperature  
Mean Temperature 42 °F -  
Max Temperature 53 °F 66 °F 73 °F (2013)
Min Temperature 32 °F 36 °F 26 °F (2013)
Degree Days  
Heating Degree Days 22    
Moisture  
Dew Point 38 °F    
Average Humidity 89    
Maximum Humidity 100    
Minimum Humidity 58    
Precipitation  
Precipitation 0.48 in - - ()
Sea Level Pressure  
Sea Level Pressure 29.81 in    
Wind  
Wind Speed 5 mph (South)    
Max Wind Speed 20 mph    
Max Gust Speed 28 mph    
Visibility 8 miles    
Events Rain    
Averages and records for this station are not official NWS values.
T = Trace of Precipitation, MM = Missing Value Source: NWS Daily Summary

Daily Weather History Graph

Daily Weather History Graph

Search for Another Location

Airport or City:

Trip Planner

Search our weather history database for the weather conditions in past years. The results will help you decide how hot, cold, wet, or windy it might be!

Date:

Astronomy

Jun. 16, 2014 Rise Set
Actual Time 5:38 AM MDT 9:12 PM MDT
Civil Twilight 5:01 AM MDT 9:49 PM MDT
Nautical Twilight 4:12 AM MDT 10:38 PM MDT
Astronomical Twilight 3:08 AM MDT 11:42 PM MDT
Moon 11:55 PM MDT (6/16) 9:55 AM MDT (6/16)
Length of Visible Light 16h 47m
Length of Day
15h 33m
Waning Gibbous, 82% of the Moon is Illuminated
Jun 16
Waning Gibbous
Jun 19
Last Quarter
Jun 27
New
Jul 5
First Quarter
Jul 12
Full

Hourly Weather History & Observations

Time (MDT) Temp. Windchill Dew Point Humidity Pressure Visibility Wind Dir Wind Speed Gust Speed Precip Events Conditions
12:10 AM 41.0 °F - 41.0 °F 100% 29.83 in 10.0 mi Calm Calm - N/A   Mostly Cloudy
12:30 AM 42.8 °F 38.6 °F 41.0 °F 93% 29.83 in 10.0 mi SSW 6.9 mph - N/A   Overcast
12:50 AM 41.0 °F - 41.0 °F 100% 29.83 in 10.0 mi Calm Calm - N/A   Overcast
1:10 AM 41.0 °F - 41.0 °F 100% 29.83 in 10.0 mi Calm Calm - N/A   Overcast
1:30 AM 41.0 °F 38.0 °F 39.2 °F 93% 29.83 in 10.0 mi West 4.6 mph - N/A   Partly Cloudy
1:50 AM 39.2 °F 35.0 °F 39.2 °F 100% 29.83 in 10.0 mi WSW 5.8 mph - N/A   Partly Cloudy
2:10 AM 41.0 °F 37.1 °F 39.2 °F 93% 29.82 in 10.0 mi SW 5.8 mph - N/A   Clear
2:30 AM 41.0 °F 37.1 °F 39.2 °F 93% 29.82 in 10.0 mi SW 5.8 mph - N/A   Clear
2:50 AM 39.2 °F 35.0 °F 37.4 °F 93% 29.82 in 10.0 mi South 5.8 mph - N/A   Clear
3:10 AM 37.4 °F 32.8 °F 37.4 °F 100% 29.82 in 10.0 mi South 5.8 mph - N/A   Clear
3:30 AM 39.2 °F 34.2 °F 39.2 °F 100% 29.82 in 10.0 mi SW 6.9 mph - N/A   Clear
3:50 AM 37.4 °F - 35.6 °F 93% 29.82 in 10.0 mi Calm Calm - N/A   Clear
4:10 AM 35.6 °F 31.7 °F 35.6 °F 100% 29.82 in 10.0 mi SE 4.6 mph - N/A   Clear
4:30 AM 33.8 °F 30.8 °F 33.8 °F 100% 29.82 in 10.0 mi South 3.5 mph - N/A   Clear
4:50 AM 33.8 °F 29.6 °F 33.8 °F 100% 29.82 in 10.0 mi NNE 4.6 mph - N/A   Clear
5:10 AM 35.6 °F 32.8 °F 35.6 °F 100% 29.82 in 10.0 mi East 3.5 mph - N/A   Clear
5:30 AM 32.0 °F - 32.0 °F 100% 29.82 in 10.0 mi Calm Calm - N/A   Clear
5:50 AM 32.0 °F - 32.0 °F 100% 29.83 in 10.0 mi Calm Calm - N/A   Clear
6:10 AM 32.0 °F 27.5 °F 32.0 °F 100% 29.83 in 10.0 mi SW 4.6 mph - N/A   Clear
6:30 AM 32.0 °F - 32.0 °F 100% 29.83 in 8.0 mi Calm Calm - N/A   Partly Cloudy
6:50 AM 35.6 °F - 35.6 °F 100% 29.83 in 10.0 mi Calm Calm - N/A   Clear
7:10 AM 37.4 °F - 37.4 °F 100% 29.82 in 10.0 mi Calm Calm - N/A   Clear
7:30 AM 39.2 °F - 37.4 °F 93% 29.82 in 10.0 mi Calm Calm - N/A   Clear
7:50 AM 39.2 °F - 37.4 °F 93% 29.81 in 10.0 mi Calm Calm - N/A   Scattered Clouds
8:10 AM 39.2 °F - 39.2 °F 100% 29.81 in 1.8 mi Calm Calm - N/A   Overcast
8:30 AM 39.2 °F 37.0 °F 39.2 °F 100% 29.81 in 9.0 mi SSW 3.5 mph - N/A   Mostly Cloudy
8:50 AM 44.6 °F - 39.2 °F 81% 29.81 in 10.0 mi Calm Calm - N/A   Partly Cloudy
9:30 AM 48.2 °F - 35.6 °F 62% 29.78 in 10.0 mi ENE 3.5 mph - N/A   Clear
9:50 AM 48.2 °F - 37.4 °F 66% 29.78 in 10.0 mi Calm Calm - N/A   Mostly Cloudy
10:10 AM 50.0 °F - 39.2 °F 66% 29.78 in 10.0 mi WSW 3.5 mph - N/A   Mostly Cloudy
10:30 AM 48.2 °F - 39.2 °F 71% 29.79 in 4.0 mi WSW 6.9 mph 20.7 mph N/A   Haze
10:50 AM 44.6 °F 38.4 °F 41.0 °F 87% 29.81 in 2.5 mi SSW 12.7 mph 17.3 mph 0.03 in Rain Light Rain
11:10 AM 44.6 °F 38.8 °F 41.0 °F 87% 29.81 in 5.0 mi South 11.5 mph 17.3 mph N/A Rain Light Rain
11:30 AM 44.6 °F 40.7 °F 41.0 °F 87% 29.81 in 10.0 mi South 6.9 mph - N/A   Scattered Clouds
11:50 AM 46.4 °F 42.4 °F 41.0 °F 81% 29.81 in 10.0 mi SE 8.1 mph - N/A   Overcast
12:10 PM 46.4 °F 42.4 °F 41.0 °F 81% 29.81 in 10.0 mi SW 8.1 mph - N/A   Overcast
12:30 PM 48.2 °F - 41.0 °F 76% 29.81 in 10.0 mi South 9.2 mph - N/A   Overcast
12:50 PM 50.0 °F - 41.0 °F 71% 29.79 in 10.0 mi South 12.7 mph 19.6 mph N/A   Overcast
1:10 PM 50.0 °F - 39.2 °F 66% 29.78 in 10.0 mi SSW 15.0 mph 20.7 mph N/A   Mostly Cloudy
1:30 PM 51.8 °F - 39.2 °F 62% 29.77 in 10.0 mi South 11.5 mph 23.0 mph N/A   Overcast
1:50 PM 50.0 °F - 37.4 °F 62% 29.77 in 10.0 mi South 19.6 mph 27.6 mph N/A   Mostly Cloudy
2:30 PM 51.8 °F - 41.0 °F 67% 29.76 in 10.0 mi SE 8.1 mph 16.1 mph N/A   Scattered Clouds
2:50 PM 51.8 °F - 41.0 °F 67% 29.75 in 10.0 mi South 13.8 mph 18.4 mph N/A   Mostly Cloudy
3:10 PM 53.6 °F - 39.2 °F 58% 29.75 in 10.0 mi South 12.7 mph 17.3 mph N/A   Mostly Cloudy
3:30 PM 53.6 °F - 39.2 °F 58% 29.75 in 10.0 mi SSW 16.1 mph 26.5 mph N/A   Mostly Cloudy
3:50 PM 44.6 °F 40.7 °F 39.2 °F 81% 29.76 in 9.0 mi NW 6.9 mph - 0.02 in Rain Light Rain
4:10 PM 44.6 °F 39.2 °F 41.0 °F 87% 29.76 in 5.0 mi NW 10.4 mph 20.7 mph N/A Rain Light Rain
4:30 PM 41.0 °F 39.0 °F 41.0 °F 100% 29.76 in 7.0 mi North 3.5 mph - 0.07 in Rain Light Rain
4:50 PM 44.6 °F 42.2 °F 41.0 °F 87% 29.75 in 8.0 mi SE 4.6 mph - 0.07 in Rain Light Rain
5:10 PM 44.6 °F 42.2 °F 41.0 °F 87% 29.77 in 4.0 mi ESE 4.6 mph - 0.02 in Rain Light Rain
5:30 PM 42.8 °F 38.6 °F 41.0 °F 93% 29.77 in 1.5 mi SE 6.9 mph - 0.19 in Rain Light Rain
5:50 PM 42.8 °F - 41.0 °F 93% 29.78 in 5.0 mi Calm Calm - 0.23 in Rain Light Rain
6:10 PM 42.8 °F 41.1 °F 39.2 °F 87% 29.78 in 10.0 mi SE 3.5 mph - 0.01 in   Mostly Cloudy
6:30 PM 42.8 °F 40.1 °F 39.2 °F 87% 29.78 in 9.0 mi SE 4.6 mph - 0.01 in   Overcast
6:50 PM 41.0 °F 35.8 °F 41.0 °F 100% 29.79 in 10.0 mi South 8.1 mph - 0.01 in   Overcast
7:10 PM 42.8 °F 35.8 °F 41.0 °F 93% 29.82 in 2.5 mi SSW 13.8 mph - 0.02 in   Mostly Cloudy
7:30 PM 41.0 °F 35.8 °F 39.2 °F 93% 29.82 in 10.0 mi SW 8.1 mph - 0.04 in Rain Light Rain
7:50 PM 41.0 °F 34.3 °F 39.2 °F 93% 29.83 in 6.0 mi SSW 11.5 mph 17.3 mph 0.04 in Rain Light Rain
8:10 PM 41.0 °F 35.8 °F 39.2 °F 93% 29.84 in 5.0 mi SSW 8.1 mph 16.1 mph N/A Rain Light Rain
8:30 PM 39.2 °F 31.6 °F 37.4 °F 93% 29.85 in 4.0 mi South 12.7 mph 17.3 mph 0.02 in Rain Light Rain
8:50 PM 39.2 °F 37.0 °F 37.4 °F 93% 29.84 in 8.0 mi SSW 3.5 mph - 0.03 in Rain Light Rain
9:10 PM 39.2 °F 35.0 °F 37.4 °F 93% 29.84 in 9.0 mi South 5.8 mph - 0.01 in Rain Light Rain
9:30 PM 39.2 °F 35.9 °F 37.4 °F 93% 29.84 in 5.0 mi SSE 4.6 mph - 0.01 in Rain Light Rain
9:50 PM 39.2 °F 35.0 °F 37.4 °F 93% 29.84 in 6.0 mi South 5.8 mph - 0.02 in Rain Light Rain
10:10 PM 39.2 °F 37.0 °F 37.4 °F 93% 29.84 in 9.0 mi East 3.5 mph - N/A   Mostly Cloudy
10:30 PM 39.2 °F 35.0 °F 37.4 °F 93% 29.85 in 10.0 mi SE 5.8 mph - 0.01 in   Overcast
10:50 PM 39.2 °F 35.0 °F 37.4 °F 93% 29.84 in 5.0 mi SSE 5.8 mph - 0.01 in Rain Light Rain
11:10 PM 39.2 °F 35.9 °F 37.4 °F 93% 29.83 in 7.0 mi SSW 4.6 mph - 0.01 in Rain Light Rain
11:30 PM 39.2 °F 35.9 °F 37.4 °F 93% 29.84 in 7.0 mi SSW 4.6 mph - 0.02 in Rain Light Rain
11:50 PM 39.2 °F 35.9 °F 37.4 °F 93% 29.84 in 10.0 mi South 4.6 mph - 0.02 in   Overcast